CW2220 Weather Reports


Display with metric or nautical units.
time (UTC)temp
F
wind
direction
speed
MPH
gust
MPH
rain 1hr
in
rain 24hr
in
rain mn
in
humidity
%
barometer
mb
20260901040043 80 47 2.0 10.0 0.00 0.04 0.04 90 1015.0
20260901034542 79 50 3.0 10.0 0.00 0.04 0.04 90 1014.6
20260901033043 79 69 3.0 6.0 0.00 0.04 0.04 90 1014.9
20260901031539 79 5 2.0 5.0 0.00 0.04 0.04 90 1014.8
20260901030040 79 5 1.0 6.0 0.00 0.04 0.04 90 1014.6
20260901024539 79 23 2.0 6.0 0.00 0.04 0.04 90 1014.4
20260901023039 79 44 2.0 4.0 0.00 0.04 0.04 91 1014.4
20260901021539 79 39 1.0 3.0 0.00 0.04 0.04 91 1014.4
20260901020046 80 351 2.0 4.0 0.00 0.04 0.04 90 1014.3
20260901014545 80 355 0.0 4.0 0.00 0.04 0.04 90 1014.1
20260901013039 80 5 1.0 4.0 0.00 0.04 0.04 89 1014.0
20260901011540 81 348 1.0 4.0 0.00 0.04 0.04 89 1014.1
20260901010045 81 0 1.0 4.0 0.00 0.04 0.04 88 1014.0
20260901004543 81 32 1.0 4.0 0.00 0.04 0.04 88 1014.0
20260901003039 81 44 2.0 4.0 0.00 0.04 0.04 88 1014.0
20260901001539 81 0 1.0 5.0 0.00 0.04 0.04 88 1014.1
20260901000040 81 49 2.0 4.0 0.00 0.04 0.04 90 1014.0
20260831234540 81 0 0.0 3.0 0.00 0.04 0.04 90 1014.1
20260831233046 81 41 1.0 4.0 0.00 0.04 0.04 90 1014.2
20260831231538 81 0 0.0 2.0 0.00 0.04 0.04 91 1014.1
20260831230046 80 63 0.0 4.0 0.01 0.04 0.04 92 1014.4
20260831224539 80 0 0.0 2.0 0.01 0.04 0.04 92 1014.6
20260831223041 80 32 0.0 5.0 0.01 0.04 0.04 91 1014.6
20260831221539 81 81 2.0 10.0 0.01 0.04 0.04 87 1014.7
20260831220048 84 169 4.0 13.0 0.00 0.03 0.03 78 1014.8
20260831214555 87 109 4.0 9.0 0.00 0.03 0.03 78 1014.6
20260831213045 86 62 4.0 11.0 0.00 0.03 0.03 78 1014.5
20260831211543 86 341 4.0 10.0 0.00 0.03 0.03 78 1014.6
20260831210040 86 339 4.0 11.0 0.00 0.03 0.03 80 1014.4
20260831204539 84 24 4.0 12.0 0.00 0.03 0.03 82 1014.8
20260831203042 83 57 5.0 12.0 0.03 0.03 0.03 82 1014.9
20260831201538 85 49 6.0 16.0 0.03 0.03 0.03 81 1014.8
20260831200038 86 22 7.0 16.0 0.03 0.03 0.03 80 1015.0
20260831194545 83 40 9.0 20.0 0.03 0.03 0.03 80 1015.4
20260831193113 89 72 7.0 20.0 0.00 0.00 0.00 71 1015.2
20260831191540 92 36 6.0 14.0 0.00 0.00 0.00 67 1014.8
20260831190045 92 32 8.0 16.0 0.00 0.00 0.00 66 1014.9
20260831184540 93 76 6.0 15.0 0.00 0.00 0.00 66 1015.1
20260831183050 91 82 6.0 16.0 0.00 0.00 0.00 67 1015.1
20260831181551 92 352 6.0 14.0 0.00 0.00 0.00 68 1015.3
20260831180047 90 54 3.0 11.0 0.00 0.00 0.00 70 1015.5
20260831174541 90 82 6.0 14.0 0.00 0.00 0.00 71 1015.7
20260831173040 90 5 6.0 14.0 0.00 0.00 0.00 72 1016.0
20260831171540 89 96 6.0 13.0 0.00 0.00 0.00 74 1016.3
20260831170045 88 78 4.0 11.0 0.00 0.00 0.00 75 1016.4
20260831164602 89 351 8.0 14.0 0.00 0.00 0.00 74 1016.2
20260831163040 89 41 5.0 14.0 0.00 0.00 0.00 75 1016.3
20260831161601 87 28 5.0 11.0 0.00 0.00 0.00 78 1016.2
20260831160059 87 24 6.0 10.0 0.00 0.00 0.00 77 1016.4
20260831154612 88 25 6.0 14.0 0.00 0.00 0.00 78 1016.4
20260831153042 86 62 3.0 13.0 0.00 0.00 0.00 80 1016.5
20260831151549 86 46 4.0 10.0 0.00 0.00 0.00 81 1016.7
20260831150053 85 27 4.0 13.0 0.00 0.00 0.00 84 1016.7
20260831144543 84 32 6.0 12.0 0.00 0.00 0.00 85 1016.6
20260831143049 84 126 3.0 10.0 0.00 0.00 0.00 86 1016.6
20260831141543 83 36 5.0 11.0 0.00 0.00 0.00 88 1016.3
20260831140046 82 76 5.0 11.0 0.00 0.00 0.00 89 1016.2
20260831134540 82 15 2.0 8.0 0.00 0.00 0.00 92 1016.1
20260831133046 80 355 5.0 9.0 0.00 0.00 0.00 93 1016.0
20260831131554 79 34 2.0 7.0 0.00 0.00 0.00 96 1015.8
20260831130046 78 13 2.0 5.0 0.00 0.00 0.00 97 1015.6
20260831124545 77 336 3.0 7.0 0.00 0.00 0.00 97 1015.6
20260831123043 76 5 2.0 6.0 0.00 0.00 0.00 97 1015.6
20260831121546 76 10 2.0 5.0 0.00 0.00 0.00 97 1015.7
20260831120040 76 36 1.0 4.0 0.00 0.00 0.00 97 1015.5
20260831114540 76 53 1.0 3.0 0.00 0.00 0.00 97 1015.3
20260831113050 76 5 1.0 4.0 0.00 0.00 0.00 97 1015.2
20260831111550 76 5 0.0 4.0 0.00 0.00 0.00 97 1015.1
20260831110040 76 360 0.0 3.0 0.00 0.00 0.00 97 1014.9
20260831104540 76 0 0.0 0.0 0.00 0.00 0.00 96 1015.0
20260831103045 76 0 0.0 0.0 0.00 0.00 0.00 96 1014.9
20260831101537 76 0 0.0 0.0 0.00 0.00 0.00 96 1014.7
20260831100055 76 0 0.0 0.0 0.00 0.00 0.00 96 1014.6
20260831094545 76 0 0.0 0.0 0.00 0.00 0.00 95 1014.7
20260831093055 76 0 0.0 0.0 0.00 0.00 0.00 95 1014.8
20260831091539 76 360 1.0 3.0 0.00 0.00 0.00 95 1014.7
20260831090044 76 0 0.0 0.0 0.00 0.00 0.00 94 1014.7
20260831084539 76 0 0.0 1.0 0.00 0.00 0.00 93 1014.7
20260831083052 77 0 0.0 2.0 0.00 0.00 0.00 93 1014.7
20260831081554 77 360 1.0 3.0 0.00 0.00 0.00 93 1014.7
20260831080107 77 0 0.0 0.0 0.00 0.00 0.00 93 1014.7
20260831074537 77 0 0.0 0.0 0.00 0.00 0.00 93 1014.7
20260831073046 78 0 0.0 0.0 0.00 0.00 0.00 92 1014.9
20260831071546 78 0 0.0 0.0 0.00 0.00 0.00 92 1015.0
20260831070041 78 0 0.0 0.0 0.00 0.00 0.00 91 1015.1
20260831064548 78 60 0.0 2.0 0.00 0.00 0.00 91 1015.1
20260831063104 78 0 0.0 0.0 0.00 0.00 0.00 91 1015.3
20260831061546 79 0 0.0 0.0 0.00 0.00 0.00 91 1015.4
20260831060040 79 0 0.0 0.0 0.00 0.00 0.00 90 1015.3
20260831054539 79 0 0.0 0.0 0.00 0.00 0.00 89 1015.4
20260831053102 80 0 0.0 0.0 0.00 0.00 0.00 89 1015.5
20260831051542 80 93 0.0 2.0 0.00 0.00 0.00 88 1015.4
20260831050042 80 0 0.0 3.0 0.00 0.00 0.00 87 1015.5
20260831044637 81 0 0.0 3.0 0.00 0.00 0.00 87 1015.6
20260831043047 81 0 1.0 8.0 0.00 0.00 0.00 86 1015.7
20260831041550 81 0 1.0 7.0 0.00 0.00 0.00 86 1015.9